Dewpoint
51 49 47 46 47 48 53 57 60 62 63 64 64 65 65 65 65 66 66 64 66 67 67 67 67 67 66 67 67 68 68 68 67 67 67 66 66 64 64 63 63 63 63
54 53 52 50 49 48 50 53 56 59 62 64 64 65 64 65 66 65 67 66 65 66 67 67 68 67 67 66 66 67 68 68 67 67 67 67 66 66 65 64 64 63 63
55 56 56 56 54 53 52 53 54 58 61 62 63 63 64 64 65 65 66 66 65 64 65 67 67 68 68 67 67 67 67 68 68 68 67 67 67 66 66 66 66 65 64
54 54 54 54 55 54 53 53 54 57 59 60 61 62 63 64 63 64 65 65 65 66 65 65 66 67 67 66 65 65 64 66 67 67 67 67 67 66 66 66 66 66 66
52 54 54 54 55 54 55 57 55 57 58 59 60 60 62 62 63 63 63 64 64 64 64 63 64 63 63 63 64 64 64 64 65 65 66 67 67 67 67 67 66 66 66
52 53 53 54 54 54 55 54 55 57 58 56 57 57 58 60 62 62 61 61 61 61 61 60 60 58 62 62 62 62 62 63 63 65 65 65 66 66 66 67 67 67 67
48 50 51 52 53 52 52 52 52 54 55 55 55 54 55 55 58 59 57 58 58 55 53 50 55 53 54 60 61 61 61 62 62 63 64 65 65 67 67 67 67 67 67
44 43 45 46 47 49 49 50 51 51 53 53 52 53 49 50 55 56 56 55 53 54 53 51 50 48 51 53 53 52 53 58 58 60 61 61 62 63 64 66 67 67 67
39 40 40 42 43 42 42 41 43 47 49 50 51 51 48 47 49 52 54 53 51 51 50 50 49 52 51 49 49 47 46 50 56 58 59 60 60 61 62 63 64 67 67
35 36 36 37 38 41 41 39 39 41 42 41 46 43 48 48 47 46 49 48 43 41 41 42 44 49 45 40 41 43 43 47 52 55 57 59 59 60 60 61 63 63 66
33 33 32 32 33 34 38 38 38 38 39 38 38 38 39 41 44 44 41 37 34 37 34 28 47 45 41 36 34 37 41 45 48 50 54 57 58 57 57 58 59 61 63
29 28 28 29 29 30 31 31 32 33 34 37 36 35 35 38 37 36 34 32 31 28 26 41 44 42 36 31 30 37 40 43 43 47 52 55 54 54 55 55 56 57 59
27 27 28 28 26 29 30 30 30 29 29 31 29 31 33 33 36 33 34 29 26 24 29 30 36 36 31 29 30 36 38 38 43 45 46 47 48 49 53 53 54 55 56
26 27 27 26 26 26 27 29 30 29 29 31 29 28 28 31 33 35 34 31 26 25 25 31 30 33 33 30 32 35 32 35 41 41 42 42 42 46 49 50 50 53 52
21 23 25 25 25 25 26 27 28 28 29 30 31 29 27 27 30 32 33 32 29 25 23 25 28 31 32 31 32 32 32 35 39 39 39 39 39 44 44 44 46 48 49
22 22 22 23 24 24 24 26 27 28 28 30 28 28 26 26 27 30 31 30 30 30 28 25 27 28 32 30 32 32 32 35 34 36 37 37 40 39 38 39 41 42 46
19 18 18 19 19 19 20 21 23 25 26 27 28 28 26 26 27 28 31 31 30 31 29 28 28 29 31 31 31 31 31 31 30 33 35 36 37 36 36 37 38 40 42
19 18 18 18 18 19 19 18 19 22 24 25 26 27 25 21 25 26 28 28 28 29 30 28 29 31 30 31 31 30 28 27 29 31 35 35 35 35 35 36 37 39 40
19 18 18 18 18 19 19 17 18 23 25 25 26 25 24 23 23 24 26 28 29 27 30 30 29 29 30 30 30 30 28 29 27 32 32 33 34 35 34 34 36 39 39
19 18 17 18 19 19 19 18 19 24 25 26 26 25 24 24 24 25 26 27 26 28 28 28 28 28 28 27 27 27 26 28 28 27 30 31 32 32 32 33 36 36 35
20 18 18 18 19 19 17 19 22 26 26 25 25 24 24 26 29 29 26 27 26 27 28 28 27 27 26 25 25 26 27 28 28 30 28 27 28 28 28 31 33 32 32
21 19 19 18 19 18 21 27 28 26 25 25 24 24 24 27 27 28 30 29 28 27 27 27 26 24 24 24 24 26 27 28 25 27 25 25 26 26 27 29 30 31 33
21 19 18 18 18 19 24 27 28 26 26 25 26 25 23 21 26 24 26 28 28 29 29 27 26 25 24 25 26 28 29 28 25 25 26 25 25 24 26 24 30 31 32
21 18 17 18 20 20 25 27 28 25 24 26 26 25 23 23 24 25 26 25 25 25 26 25 27 28 28 28 30 29 28 26 26 24 25 25 23 24 25 25 29 30 31
21 20 19 19 20 21 25 26 26 24 25 25 24 24 24 24 27 28 26 26 24 24 26 29 30 30 30 30 29 29 27 26 23 22 23 25 25 26 27 27 25 28 29
21 21 21 21 23 22 24 27 25 24 24 23 23 23 27 27 29 29 26 26 26 26 26 24 24 24 25 25 27 26 25 26 25 24 23 24 24 25 24 25 25 26 25
Lifted_Index
8 8 9 9 8 7 6 4 3 2 1 0 -0 -1 -1 -2 -2 -2 -3 -2 -2 -1 -1 -2 -2 -2 -1 -1 -1 -1 -1 -1 -1 -0 0 1 1 2 2 3 3 3 3
8 8 8 8 7 7 6 5 3 2 1 0 -0 -0 -1 -1 -2 -2 -2 -2 -2 -2 -2 -2 -2 -2 -2 -2 -1 -2 -2 -2 -1 -1 -1 -0 0 1 1 2 2 3 3
8 7 7 6 6 6 5 5 4 3 1 0 -0 -0 -0 -1 -1 -2 -2 -2 -2 -2 -2 -2 -2 -3 -2 -2 -2 -2 -1 -2 -2 -2 -1 -1 -1 -0 0 0 1 1 2
8 7 6 6 5 5 4 4 4 3 2 1 0 -0 -0 -1 -1 -1 -2 -2 -2 -2 -2 -1 -1 -1 -2 -2 -1 -1 -1 -1 -1 -1 -1 -1 -1 -1 -1 -1 -0 0 1
8 7 7 6 5 5 5 4 4 3 3 2 1 0 -1 -1 -1 -2 -2 -2 -1 -1 -1 -1 -0 -0 -0 -0 -0 0 0 0 -0 -0 -1 -1 -1 -1 -1 -1 -1 -1 -0
8 8 7 7 7 6 6 5 5 4 3 2 1 0 -1 -1 -2 -2 -2 -1 -1 -0 0 0 1 1 1 1 1 2 2 2 1 1 0 -0 -1 -1 -1 -1 -1 -1 -1
8 8 8 8 8 7 7 7 6 5 4 4 3 2 0 -1 -1 -1 -1 -0 0 1 2 2 3 3 3 3 2 3 3 3 3 2 2 1 1 0 -0 -1 -1 -1 -1
9 8 9 9 8 8 8 7 7 6 6 5 5 3 1 -0 -1 -0 -0 1 2 3 3 4 4 5 5 4 4 4 4 4 4 4 3 3 2 2 1 0 -1 -1 -1
10 10 10 10 10 10 9 9 8 8 7 7 7 6 4 2 1 1 1 2 3 4 5 6 6 6 6 6 5 5 5 5 4 4 4 4 3 3 3 2 0 -1 -2
12 12 12 13 13 12 12 11 10 10 9 8 8 8 7 6 5 3 3 3 5 6 8 9 8 7 7 7 7 7 7 6 5 5 5 4 4 4 4 3 2 0 -1
15 15 15 16 16 16 16 15 14 13 12 11 11 11 11 10 9 7 6 7 8 10 11 12 10 9 10 10 11 11 10 9 8 8 7 6 5 6 5 5 3 2 1
17 17 18 18 19 19 19 18 17 17 16 15 15 15 14 13 13 12 11 11 12 13 14 12 11 12 13 15 15 16 15 14 12 11 10 9 8 7 7 6 5 4 3
18 18 19 20 20 20 20 19 19 19 18 18 17 17 17 17 16 16 15 14 14 14 14 14 13 15 16 18 18 18 18 17 15 15 14 13 11 10 9 8 7 6 5
18 19 20 20 20 20 20 19 19 19 19 18 18 18 18 19 18 18 17 17 15 14 14 14 15 16 17 19 19 19 18 18 17 16 16 16 15 13 11 10 9 8 7
18 19 20 20 20 20 20 19 19 19 19 19 19 19 19 20 20 19 19 18 17 15 15 15 16 17 18 19 19 19 19 18 18 17 17 17 16 15 14 13 10 9 9
18 19 20 20 20 20 19 19 18 18 18 19 19 19 20 20 20 20 20 20 19 17 16 17 17 18 18 18 19 19 19 19 19 18 18 18 17 17 17 16 14 12 10
17 18 19 20 20 20 19 19 18 18 18 19 19 20 20 20 20 20 20 20 20 19 18 18 18 18 18 19 19 19 19 19 19 19 19 18 18 18 19 18 17 15 13
17 17 19 20 20 20 19 19 19 19 19 19 19 20 20 20 20 20 20 20 20 20 19 18 18 19 19 19 19 19 19 19 18 18 19 19 19 19 19 19 19 17 17
16 16 18 19 20 20 19 19 19 19 19 20 20 20 20 20 20 20 20 20 20 20 19 19 18 19 19 18 18 18 18 17 17 17 17 17 18 19 19 19 19 18 18
15 15 17 18 19 19 19 19 19 19 19 20 20 20 20 20 20 20 19 19 19 19 19 19 18 18 17 17 17 16 16 16 16 15 15 16 17 18 18 19 19 19 19
14 14 15 17 18 19 19 19 18 19 19 19 20 20 20 20 20 19 19 20 20 19 19 18 17 16 16 16 15 15 15 14 14 14 14 15 15 16 17 17 18 19 20
13 13 14 16 18 18 19 19 19 19 19 19 19 19 19 20 20 19 20 20 20 19 18 17 15 15 14 15 15 15 14 14 13 13 14 14 14 15 15 16 17 19 20
12 12 13 15 17 18 19 19 19 19 19 19 19 19 19 19 19 19 19 19 19 18 17 16 15 14 14 14 14 14 14 14 13 14 14 13 13 14 14 15 16 18 19
12 12 13 15 17 18 18 19 19 19 19 19 18 18 19 19 19 19 19 18 17 16 16 15 15 14 14 14 14 14 14 14 14 14 14 13 13 13 13 14 15 17 18
12 12 13 15 17 18 18 19 19 19 18 18 18 18 18 18 19 19 18 17 16 15 15 15 15 15 15 15 15 15 15 14 14 14 14 14 13 13 12 13 14 15 17
12 12 13 15 17 18 18 19 19 18 18 18 18 18 18 18 19 18 18 16 15 14 14 15 15 15 15 15 15 15 15 14 14 14 14 14 13 13 12 12 13 15 16